OBJECT BQ, 64590

Orbit data source: Space-Track

You're viewing an Uncataloged Satellite

Recently launched and/or uncataloged satellites may have evolving metadata. Metadata may include but not limited to: Owner, Maufacturer, Bus, Motor, and Mission.

OBJECT BQ, 64590 is a satellite in SSO that was launched on Mon, 23 Jun 2025 UTC via an FALCON 9 launch vehicle from the Air Force Western Test Range (AFWTR). Unknown objects in Earth's orbit typically refer to objects detected orbiting the Earth but have not yet been identified or cataloged. These objects could be anything from previously untracked satellites, spent rocket stages, debris from satellite collisions, or even natural meteoroids temporarily captured by Earth's gravity.

Loading next visibility...
Identifier
64590, 2025-135BQ
Orbit
SSO
Country
Flag of TBDTBD
Related business
None
Manufacturer
Unknown
Mission
Operational Civil Technology
Bus & Motor
Unknown
Mass
Unknown
Launch date (UTC)
2025-06-23 (1 year ago)
Launch vehicle
FALCON 9
Launch site
Air Force Western Test Range (AFWTR)
Object type
Unknown
Shape & HBR
Box, 0.1 m
Radar Cross Section
0.035 m², Medium (>0.1 m² and < 1m²)

Expand to show TLE details & history
Last TLE update: 13 hours ago

TLE from 13 hours ago
0 OBJECT BQ
1 64590U 25135BQ  26178.30428164  .00001399  00000-0  13631-3 0  9991
2 64590  97.7728 292.6478 0004150 307.8986  52.1859 14.94096405 55412
Epoch: 2026-06-27T07:18Z
TLE epoch observation values (Epoch: 2026-06-27T07:18:09.933Z)
Latitude
0.00003°
Longitude
-92.31395°
Altitude
586.452 km
Speed
7.568 km/s
True Right ascension
19h 30m 35s
True Declination
0° 00' 00"
Sunlit
Object was in full shadow at epoch
Visualization orbit readout
Latitude
Unknown
Longitude
Unknown
Altitude
Unknown
Speed
Unknown
Apparent Right ascension
Unknown
Apparent Declination
Unknown
Sunlit
N/A
Visualization observer readout
Local Sidereal Time
07:44:17
Azimuth
Unknown
Elevation
Unknown
Doppler factor
Unknown
Orbital elements
Apogee altitude
585.084 km
Perigee altitude
579.307 km
Semi-major axis
6,960.332 km
Eccentricity
0.00042
Inclination
97.7728°
RAAN
292.6478°
Arg. of periapsis
307.8986°
True anomaly
52.22348°
Mean anomaly
52.1859°
Eccentric anomaly
52.20469°
Mean motion
3.73765 °/min
Orbital period
96.32 mins
BSTAR
0.00013631
Loading maneuver chart data...
Computing Atmospheric mass density...
Loading historical data...
Loading historical data...
Loading historical data...
Loading historical data...
Loading historical data...
Loading historical data...
Loading historical data...

Documentation

Showing up to 5 results
|